Theta_e
317 317 317 317 318 317 317 317 317 318 318 319 320 320 321 321 321 321 311 318 322 340 337 330 326 325 326 323 324 321 310 307 309 309 312 316 313 314 314 312 312 314 314 316 319
316 316 316 316 316 316 316 316 316 317 318 319 318 319 320 321 316 311 322 331 336 341 327 323 321 322 320 320 319 314 308 308 313 315 314 316 314 315 310 310 311 312 314 316 317
314 315 315 315 315 315 315 315 315 315 316 317 317 318 320 321 311 310 340 335 338 339 324 325 323 321 316 318 316 313 308 312 313 316 316 314 313 315 311 309 312 312 314 315 316
314 314 314 314 314 314 314 314 314 315 315 315 315 318 319 317 299 319 342 338 339 329 322 322 319 316 314 312 316 310 312 313 315 315 313 312 314 310 311 313 315 315 316 316 316
313 314 313 313 313 313 313 313 314 314 314 314 315 317 314 308 305 320 342 340 330 323 317 317 315 315 311 314 314 311 311 314 316 314 313 312 310 310 311 314 315 315 316 316 317
313 313 313 313 313 313 314 314 313 314 313 314 315 316 311 300 313 315 318 320 318 321 317 318 317 318 314 314 312 313 313 313 314 312 311 309 310 309 312 314 314 314 315 316 316
314 313 313 313 313 313 313 313 313 312 313 315 316 316 307 304 314 317 319 321 319 319 316 318 320 316 315 312 316 313 309 311 311 311 310 310 307 308 314 314 313 313 315 315 316
313 313 313 313 313 313 313 313 312 312 313 315 319 316 304 313 317 314 315 319 324 322 320 321 321 318 315 316 312 308 309 305 311 310 309 308 302 310 313 312 312 313 314 314 316
314 313 313 313 313 312 313 312 312 312 313 319 318 314 304 315 310 314 315 312 314 318 320 321 319 315 314 309 307 307 302 305 307 312 309 308 306 311 313 312 312 313 314 313 315
314 313 313 313 312 312 312 312 313 311 320 321 319 309 309 306 311 314 316 312 310 311 316 315 314 310 310 308 300 302 303 305 305 309 308 307 307 309 312 312 312 314 314 313 314
313 313 313 313 313 312 309 308 307 310 315 306 307 304 306 310 314 313 316 310 313 313 308 313 307 304 308 310 309 307 305 304 307 309 307 307 307 309 312 312 312 313 314 314 315
310 312 313 313 312 311 309 302 304 303 299 308 310 310 311 312 306 310 317 307 307 305 310 308 304 310 311 310 308 307 305 305 307 309 307 306 306 309 311 312 314 314 315 315 316
311 311 312 313 312 309 306 304 308 308 300 302 306 307 308 311 307 308 314 309 305 305 306 305 307 312 310 308 306 306 305 305 304 308 308 306 304 307 310 312 313 315 316 317 316
310 311 311 311 305 309 303 307 309 308 296 299 301 305 308 308 304 312 315 310 308 304 307 307 311 309 308 307 307 303 308 307 305 303 298 306 296 304 307 308 311 314 315 316 316
308 309 310 309 308 304 305 310 309 308 287 303 304 313 308 304 305 306 314 312 305 306 308 306 308 307 306 307 309 305 309 307 306 303 303 302 299 303 306 305 308 312 316 317 317
307 309 310 307 308 310 311 309 307 295 287 298 304 303 303 304 304 307 307 312 312 307 309 308 313 311 309 310 309 310 306 306 306 303 296 301 300 299 304 305 309 312 315 316 316
306 307 308 307 300 311 310 303 293 289 300 297 299 303 302 300 302 304 302 301 301 299 301 305 307 311 311 307 309 308 304 296 295 295 294 302 298 301 307 309 311 313 316 317 316
306 307 308 306 306 308 306 295 287 295 297 301 301 302 300 302 301 302 301 299 304 305 302 299 297 307 310 307 304 305 304 297 290 292 296 301 296 303 309 313 316 316 317 317 316
305 303 305 308 308 303 297 287 290 296 300 299 299 298 299 302 301 301 301 300 303 306 301 300 300 309 310 310 309 304 301 307 300 301 296 299 302 308 309 311 314 315 314 315 316
300 300 301 309 308 299 290 288 293 299 300 301 296 300 297 299 299 300 300 303 302 306 310 306 300 306 308 310 309 307 308 299 301 293 291 296 298 300 305 306 314 315 314 315 316
299 294 303 310 307 293 285 289 293 299 300 299 298 298 300 300 300 299 300 303 305 304 308 308 305 303 306 305 303 304 303 304 304 301 294 293 298 308 307 310 312 317 317 316 316
295 288 305 307 289 288 287 293 294 295 298 297 299 300 300 301 300 300 300 303 306 306 302 308 305 300 302 308 309 308 304 305 298 297 300 299 299 311 311 313 317 320 318 317 317
292 293 305 302 285 285 292 292 294 293 294 295 295 300 303 301 299 302 302 305 306 305 304 308 303 297 299 304 308 304 305 306 306 305 300 297 299 312 313 315 318 319 319 317 317
295 286 292 293 293 291 289 289 288 295 294 294 294 297 298 299 303 301 302 305 306 306 311 311 305 301 296 300 304 302 303 305 305 300 300 300 302 308 311 313 316 320 320 317 317
296 289 292 287 287 291 290 290 288 288 294 295 293 294 296 297 298 299 303 304 305 307 309 310 302 303 303 304 304 303 302 303 302 304 300 302 303 307 310 313 315 320 320 317 316
289 290 290 291 290 288 290 289 288 289 290 291 291 294 297 297 299 298 301 303 302 306 306 310 301 303 300 303 303 301 303 304 304 304 304 305 304 311 313 314 316 319 319 317 317
295 296 292 289 289 288 288 289 290 292 293 295 294 293 294 299 301 303 304 303 303 305 306 306 302 301 296 301 300 297 301 303 305 307 306 302 307 311 311 313 315 319 319 319 319
Wind_Speed
17 16 16 17 17 17 19 19 17 15 15 15 16 17 15 15 11 5 14 8 9 17 9 12 10 11 12 11 8 5 11 11 11 11 10 4 11 5 3 7 7 7 6 3 8
18 18 17 17 17 16 18 18 18 19 17 17 16 17 17 15 10 19 11 15 17 22 18 16 15 13 12 13 8 10 11 15 7 10 14 16 8 14 6 6 10 9 4 6 10
16 18 18 18 18 15 15 15 16 16 15 17 17 16 16 13 11 6 2 10 18 24 19 18 12 16 15 11 11 13 14 14 13 13 15 17 10 9 10 10 10 9 12 12 11
14 15 15 15 15 16 17 18 18 17 17 17 15 15 17 6 8 4 8 14 18 21 17 18 17 19 16 16 15 15 16 16 13 10 9 7 6 8 12 11 4 6 5 14 14
13 15 16 17 17 17 17 17 17 16 16 16 14 14 8 8 12 6 7 11 15 19 21 21 19 21 19 16 15 15 17 14 12 11 8 3 10 9 11 6 6 6 11 14 12
10 12 14 15 16 17 17 17 17 17 18 15 13 11 5 17 8 11 12 11 10 19 21 24 19 21 15 17 13 13 11 14 10 9 6 8 3 5 7 3 9 11 13 13 13
10 10 11 13 16 17 18 18 18 19 20 16 12 8 9 24 4 3 8 11 13 18 18 23 19 16 17 12 14 12 13 12 13 9 5 5 9 10 9 5 11 13 12 12 12
10 10 10 12 15 17 20 20 22 22 21 16 8 8 13 8 15 22 20 10 6 13 16 18 18 17 11 5 8 11 13 14 12 8 6 7 11 14 3 10 14 14 13 12 14
13 11 10 12 14 17 18 21 26 21 10 5 9 9 15 7 13 20 17 20 17 11 9 8 19 15 15 14 14 14 14 16 8 9 4 11 14 10 3 10 12 13 14 13 13
12 12 13 10 13 15 17 24 15 8 6 8 5 7 12 11 11 8 13 20 12 17 12 14 14 17 17 16 16 14 15 9 12 7 10 11 15 13 15 13 12 13 13 14 15
14 11 12 11 11 13 15 7 8 8 10 13 11 16 3 5 4 10 9 18 12 21 16 21 18 23 25 21 17 10 11 13 9 6 9 14 13 14 16 14 12 13 14 16 15
15 15 13 9 11 11 11 7 3 5 11 20 26 20 22 3 6 13 15 17 20 24 22 18 23 24 22 19 16 14 16 16 8 9 7 13 15 16 16 12 10 12 14 15 14
11 13 15 9 8 10 7 7 3 3 10 15 23 26 25 19 11 17 21 22 23 26 28 23 22 23 21 17 19 18 18 13 11 10 12 12 17 7 8 7 9 10 11 13 16
15 12 12 5 6 3 6 7 4 4 9 11 12 14 30 21 19 23 22 19 19 28 28 23 22 24 18 24 20 20 15 14 13 12 11 2 13 11 9 9 9 8 10 12 15
15 15 11 12 9 6 7 2 6 5 10 7 13 9 20 31 10 28 21 21 20 21 26 24 24 25 25 23 21 17 13 13 15 12 11 15 8 8 5 8 6 7 7 10 14
15 14 9 1 8 10 5 6 5 9 16 10 12 17 21 29 17 14 29 21 17 21 23 24 16 20 22 17 15 16 8 10 8 11 12 15 9 9 3 3 9 2 3 7 14
15 13 10 6 4 10 5 8 10 17 7 12 13 19 25 20 29 18 30 32 21 24 24 26 22 22 17 20 13 18 14 10 11 10 11 2 7 10 9 8 8 9 8 8 14
13 9 7 10 8 11 7 11 18 20 25 6 12 20 24 20 26 25 25 29 29 26 18 23 26 27 18 23 16 21 18 11 11 11 11 7 7 4 0 3 5 5 5 10 16
9 9 9 9 11 4 9 19 22 24 14 21 11 20 19 20 13 26 28 30 32 30 22 24 25 28 24 21 22 16 19 17 16 14 9 11 5 11 5 4 4 0 4 12 16
7 7 10 13 11 4 9 30 21 18 5 20 27 19 23 24 17 25 25 24 32 33 26 11 21 16 23 21 23 20 16 11 10 14 14 8 6 7 6 3 4 6 8 13 16
7 5 4 13 11 5 11 32 28 22 5 12 22 25 22 22 23 27 19 13 32 34 27 15 14 21 17 23 22 13 17 14 13 14 12 10 6 6 2 0 3 5 11 15 17
4 5 6 12 8 3 10 29 30 21 20 19 10 18 19 19 24 24 24 23 21 29 36 30 13 15 23 20 22 23 22 20 13 16 10 11 8 10 6 4 4 3 11 15 17
4 3 4 9 10 12 13 27 25 27 16 14 15 6 17 17 16 24 18 13 15 28 28 25 16 16 16 10 14 22 21 21 20 16 16 12 10 7 7 7 6 5 12 14 18
3 3 4 3 6 18 25 20 18 15 21 19 19 19 17 17 15 11 20 16 14 25 15 23 17 27 22 19 18 22 21 23 21 17 15 16 15 10 10 10 8 8 10 14 18
3 5 3 4 4 17 9 11 16 15 18 17 10 19 16 12 19 13 16 16 14 18 22 20 25 24 26 20 22 20 23 24 24 23 20 15 16 12 10 11 11 10 11 14 17
3 3 2 3 2 7 14 18 23 15 18 21 24 22 13 12 12 18 13 14 19 14 24 21 17 22 21 26 22 21 25 24 25 25 22 20 19 11 12 11 11 10 14 16 19
1 2 3 2 3 6 4 11 18 19 18 21 21 24 20 10 5 7 7 4 2 13 18 19 16 14 21 22 20 25 27 25 23 23 20 22 19 16 12 11 13 14 15 16 18
Wind_Direction
351 353 354 350 353 354 349 349 347 347 336 332 330 329 332 336 315 182 245 214 172 166 157 162 184 188 197 220 228 249 261 262 269 277 296 285 282 138 328 240 219 194 264 48 151
344 344 348 348 345 347 341 337 341 338 341 334 332 325 324 339 299 268 243 210 153 165 175 187 192 188 198 218 203 229 251 264 286 297 285 296 291 302 226 208 227 215 180 176 178
335 337 338 337 335 338 328 330 334 332 329 317 322 320 320 318 274 256 1 180 163 171 199 200 202 196 222 214 205 229 255 279 275 272 295 291 287 265 255 264 251 239 196 193 192
323 326 326 325 326 329 326 327 320 328 319 314 325 320 318 261 261 79 19 151 169 190 200 198 198 202 218 211 222 244 250 262 271 298 284 269 277 251 246 283 353 239 197 190 196
322 324 325 328 329 325 317 313 317 307 309 315 323 324 319 247 247 178 151 129 172 201 208 202 199 206 217 220 232 234 267 255 270 268 245 255 247 279 279 274 231 224 186 197 195
301 314 320 319 317 316 314 316 312 308 314 317 316 307 258 254 263 251 232 226 217 203 209 208 210 215 233 234 233 252 267 257 261 236 199 240 252 266 292 233 214 211 205 200 197
278 285 298 306 309 312 313 309 307 309 310 307 292 251 249 240 259 269 217 232 219 206 211 219 216 200 222 224 234 253 254 242 234 214 232 261 250 241 277 194 226 220 213 202 201
265 269 284 295 302 310 312 310 307 304 299 295 243 211 254 254 251 248 243 236 190 203 231 209 223 217 220 166 197 232 230 231 176 203 166 230 273 276 200 209 229 221 213 204 201
277 274 274 283 298 308 309 304 299 298 282 211 180 231 258 117 227 237 221 217 214 201 214 200 200 211 205 219 231 215 243 218 225 206 210 223 288 297 271 243 255 230 219 210 200
302 276 277 288 299 304 311 290 289 264 201 180 253 225 240 227 218 217 198 205 194 196 184 194 191 200 217 211 226 224 219 232 254 198 230 264 272 278 280 239 251 252 225 216 210
305 290 282 281 292 312 322 306 207 188 208 215 190 227 82 252 219 204 169 192 193 183 185 188 203 205 206 217 236 272 253 250 252 272 267 279 289 287 283 270 253 249 223 218 211
300 298 287 268 283 309 290 275 37 354 288 235 251 236 260 299 237 212 174 182 190 195 196 186 216 208 217 210 223 230 240 244 247 268 273 286 288 293 282 270 263 242 222 215 202
294 288 301 251 287 274 269 285 320 300 258 249 226 226 223 210 232 199 192 207 194 199 199 204 211 214 212 208 213 225 239 242 259 302 259 260 274 262 272 240 244 243 233 208 202
305 293 292 258 269 262 245 149 280 282 270 242 204 231 213 218 231 229 197 197 202 203 204 216 217 200 201 213 212 227 217 259 261 264 282 5 293 281 273 275 254 236 215 209 196
296 286 275 230 330 244 67 287 313 222 267 159 175 146 187 188 157 200 197 203 216 203 201 208 208 191 208 214 207 238 232 232 257 268 284 260 252 288 238 278 292 279 191 197 190
282 283 266 256 241 265 275 295 230 216 237 191 159 182 175 199 211 165 188 207 219 217 210 226 210 203 213 216 217 225 203 226 244 256 246 254 249 276 274 314 319 323 118 182 180
269 278 256 145 237 254 245 223 204 226 156 183 181 179 181 185 206 181 187 194 195 196 202 214 200 208 211 206 203 220 213 223 217 216 249 139 245 258 309 313 324 307 318 167 174
255 273 242 217 221 288 233 218 221 221 218 107 189 183 192 173 204 193 191 196 207 202 192 202 204 190 198 209 191 203 208 233 224 243 249 151 250 218 7 317 288 319 326 153 171
238 239 240 207 206 193 248 215 220 221 215 223 197 191 197 189 190 199 209 205 199 200 212 197 209 198 203 209 215 186 219 227 256 268 273 275 187 254 254 246 205 160 137 161 167
229 228 239 195 176 160 226 237 230 234 301 217 221 200 196 192 201 193 192 212 206 210 213 194 208 188 197 207 210 219 201 199 222 241 237 236 233 270 225 350 101 168 168 167 167
205 222 193 166 161 207 216 227 236 271 359 300 235 234 223 192 204 193 198 191 203 197 208 183 210 184 189 203 199 187 220 215 253 227 235 243 253 103 277 190 340 164 169 172 176
214 213 167 148 192 220 230 230 243 294 319 284 300 277 226 223 203 199 217 205 195 191 198 199 197 181 209 197 216 200 214 206 223 212 245 277 258 145 248 252 282 188 170 177 177
212 213 197 184 210 218 244 244 249 251 268 318 287 331 272 230 229 216 209 196 189 194 197 189 208 207 192 189 216 226 211 219 218 246 251 235 239 158 191 221 220 193 172 174 181
156 218 203 263 268 252 232 243 243 254 257 270 275 293 265 248 234 218 211 194 201 195 185 196 199 210 211 197 190 207 223 217 218 224 233 239 252 191 206 222 194 191 181 179 183
231 222 292 169 224 225 263 247 244 228 233 257 277 245 286 246 219 216 211 177 202 193 187 192 210 212 226 217 201 209 213 218 218 223 234 234 241 233 236 216 228 188 185 180 184
167 237 213 210 150 219 234 241 248 233 238 247 238 272 258 254 308 219 200 201 182 186 192 191 215 222 217 222 221 213 217 214 218 224 228 242 251 242 235 255 205 195 188 189 190
126 224 231 249 203 240 274 255 251 245 238 245 248 240 255 249 318 332 324 306 42 202 179 188 205 205 220 217 225 231 218 215 219 225 228 233 237 243 233 231 226 203 199 198 193